Tracking 30995 objects as of 6-Jul-2025
HD Live streaming from Space Station
objects crossing your sky now

SL-14 DEB

Track SL-14 DEB now!
10-day predictions


NORAD ID: 45287
Int'l Code: 1991-056Z
Perigee: 1,089.7 km
Apogee: 1,198.4 km
Inclination: 82.6 °
Period: 108.1 minutes
Semi major axis: 7515 km
RCS: Unknown
Launch date: August 15, 1991
Source: Commonwealth of Independent States (former USSR) (CIS)
Launch site: PLESETSK MISSILE AND SPACE COMPLEX (PKMTR)

Note: This is SATELLITE DEBRIS
Your satellite tracking list
Your tracking list is empty




NASA's NSSDC Master Catalog

Two Line Element Set (TLE):
1 45287U 91056Z   25186.48328658  .00000400  00000-0  78399-3 0  9996
2 45287  82.5724 351.8539 0072301  86.8319 274.1081 13.32610465261348
Source of the keplerian elements: AFSPC